Regional Weather Roundup
Issued by NWS

Home | Current Version | Previous Version | Graphics & Text | Print | Product List | Glossary On
Versions: 1 2 3 4 5 6 7 8 9 10 11 12 13 14 15 16 17 18 19 20 21 22 23 24 25 26 27 28 29 30 31 32 33 34 35 36 37 38 39 40 41 42 43 44 45 46 47 48 49 50
000
ASUS43 KOAX 222002
RWRNE

WEATHER ROUNDUP FOR NEBRASKA
NATIONAL WEATHER SERVICE OMAHA NE
300 PM CDT TUE JUL 22 2014

NOTES: SATELLITE DATA IS BEING USED TO AUGMENT CLOUD COVER ABOVE
       12000 FEET.
       "FAIR" INDICATES FEW OR NO CLOUDS BELOW 12,000 FEET WITH NO
       SIGNIFICANT WEATHER AND/OR OBSTRUCTIONS TO VISIBILITY.

  * THESE STATIONS DO NOT REPORT WEATHER SUCH AS RAIN...SNOW OR FOG.

NEZ001>004-019>022-054>056-222100-
NEBRASKA PANHANDLE

CITY           SKY/WX    TMP DP  RH WIND       PRES   REMARKS
SCOTTSBLUFF    SUNNY     90  56  31 E9        30.25S
ALLIANCE       SUNNY     91  51  25 SE8       30.25S
CHADRON        SUNNY     90  59  35 E10       30.21F
KIMBALL        SUNNY     89  51  27 SE13      30.29S
SIDNEY         SUNNY     92  52  25 MISG      30.27F
$$

NEZ057>060-069>072-079>082-222100-
SOUTHWEST NEBRASKA

CITY           SKY/WX    TMP DP  RH WIND       PRES   REMARKS
NORTH PLATTE   SUNNY     91  61  36 E9        30.17S HX  91
IMPERIAL       SUNNY     93  59  31 E13       30.19S HX  92
LEXINGTON      SUNNY     91  60  35 E15       30.15S HX  90
MCCOOK         SUNNY     93  66  40 VRB7      30.14R HX  96
OGALLALA       SUNNY     88  58  35 E9        30.21F
$$

NEZ005>010-023>029-035>040-094-222100-
NORTH CENTRAL NEBRASKA

CITY           SKY/WX    TMP DP  RH WIND       PRES   REMARKS
VALENTINE      SUNNY     84  62  47 VRB6      30.23R
AINSWORTH      MOSUNNY   81  61  49 N6        30.22S
BROKEN BOW     SUNNY     90  62  39 NE12      30.18R HX  90
O`NEILL        MOSUNNY   78  64  61 NE17      30.16F
ORD            SUNNY     89  65  44 N7        30.15R HX  91
THEDFORD       SUNNY     89  60  36 E9G16     30.21S
$$

NEZ041-046>049-061>064-073>077-083>087-222100-
SOUTH CENTRAL NEBRASKA

CITY           SKY/WX    TMP DP  RH WIND       PRES   REMARKS
GRAND ISLAND   SUNNY     88  67  49 NE10      30.14R HX  91
AURORA         SUNNY     87  69  54 NE8       30.12R HX  91
HASTINGS       SUNNY     89  65  44 N16G24    30.13R HX  91
HEBRON         SUNNY     94  73  49 N7        30.06R HX 103
HOLDREGE       SUNNY     90  65  43 NE16      30.13S HX  91
KEARNEY *      SUNNY     90  64  43 NE16      30.14S HX  91
YORK           SUNNY     88  72  58 N15G21    30.11R HX  94
$$

NEZ011>018-030>034-042>045-222100-
NORTHEAST NEBRASKA

CITY           SKY/WX    TMP DP  RH WIND       PRES   REMARKS
NORFOLK        SUNNY     87  66  49 NE12      30.11F
ALBION         SUNNY     84  63  49 N10       30.15R
BLAIR          MOSUNNY   87  61  41 N8        30.06S
COLUMBUS *     SUNNY     88  66  48 N13       30.12R HX  90
FREMONT        MOSUNNY   89  68  50 N9        30.09R HX  93
TEKAMAH        PTSUNNY   90  69  50 N18G24    30.08R HX  94
WAYNE          MOSUNNY   85  70  60 NE15      30.13F HX  90
$$

NEZ050>053-065>068-078-088>093-222100-
SOUTHEAST NEBRASKA

CITY           SKY/WX    TMP DP  RH WIND       PRES   REMARKS
LINCOLN        MOSUNNY   95  72  47 N10       30.05S HX 103
OMAHA EPPLEY   MOSUNNY   91  68  46 N8        30.04S HX  95
BEATRICE       SUNNY     91  76  62 N5        30.04R HX 102
FALLS CITY     PTSUNNY   97  74  47 W7        29.99S HX 108
NEBRASKA CITY  SUNNY     93  74  53 NE12      30.02S HX 102
PLATTSMOUTH    SUNNY     92  72  51 N10       30.04R HX  98
$$

NEZ044-045-051>053-067-222100-
OMAHA AREA

CITY           SKY/WX    TMP DP  RH WIND       PRES   REMARKS
OMAHA EPPLEY   MOSUNNY   91  68  46 N8        30.04S HX  95
BLAIR          MOSUNNY   87  61  41 N8        30.06S
FREMONT        MOSUNNY   89  68  50 N9        30.09R HX  93
MILLARD        MOSUNNY   89  70  54 NE5       30.04R HX  94
OFFUTT AFB     SUNNY     92  74  55 N7        30.03S HX 101
PLATTSMOUTH    SUNNY     92  72  51 N10       30.04R HX  98
WAHOO          FAIR      90  69  50 N9        30.07R HX  94
$$



USA.gov is the U.S. government's official web portal to all federal, state and local government web resources and services.